Location: *
(43.0833°N, 13.0500°E)
Time: 19:33:32
(UTC+00:00)

CENTAUR R/B - Pass Details

Date: 15 November 2019
Orbit: 779 x 1409 km, 63.4° (Epoch: 01 December)

Event Time Altitude Azimuth Distance (km) Brightness Sun altitude
Rises 18:49:12 0° 323° (NW) 4,023 6.2 -33.7°
Reaches altitude 10° 18:52:19 10° 335° (NNW) 3,159 5.5 -34.3°
Enters shadow 18:56:36 25° 7° (N) 2,351 4.4 -35.1°
